Эбя

Россия / Республика Саха (Якутия)     63°29′17″N   123°10′45″E
темп.,
°C
ветер,
м/с
пор.,
м/с
влажн.,
%
обл.,
%
осадки,
мм/ч
давл.,
гПа
погр.,
м
12 мая, ср
ср1200:00+2ссз3676100 0.0 1017541
03:000ссз378595 0.0 1016230
06:00−1ссз478173 0.0 1016388
09:00+3с45575 0.0 1015829
12:00+6с45414 0.0 10141163
15:00+8с45354 0.0 10131531
18:00+8с45375 0.0 10131562
21:00+4с37540 0.0 1014231
13 мая, чт
чт1300:000с38710 0.0 1014181
03:00−1ссз36804 0.0 1015127
06:000ссз36705 0.0 1015325
09:00+4ссз45440 0.0 1015940
12:00+8ссз34330 0.0 10141461
15:00+10сз33290 0.0 10131691
18:00+10сз33270 0.0 10131796
21:00+6сз22430 0.0 101526
14 мая, пт
пт1400:00+3всв11493 0.0 101510
03:00+2ююз11490 0.0 101510
06:00+4юз24460 0.0 1015104
09:00+9зюз23355 0.0 1014729
12:00+12зюз23273 0.0 10132100
15:00+13юз23255 0.0 10112372
18:00+13юз22255 0.0 10112426
21:00+9ююз22395 0.0 101127
15 мая, сб
сб1500:00+7ю33404 0.0 101134
03:00+5ююз35565 0.0 101070
06:00+7ююз375271 0.0 1010185
09:00+12ююз463354 0.0 1009709
12:00+15ююз562555 0.0 10072573
15:00+16ююз452598 0.0 10052893
18:00+16ююз462580 0.0 10042577
21:00+13ююв5113899 0.0 1004343
16 мая, вс
вс1600:00+10ю6144048 0.0 1003369
03:00+8ю61353100 0.0 1001295
06:00+9ю51255100 0.0 1000407
09:00+13ююз6942100 0.0 999928
12:00+15ююз593892 0.0 9972299
15:00+14ююз5842100 0.2 9971994
18:00+10зюз4763100 0.1 9981035
21:00+8зюз3579100 0.6 997537